QPF
0.00 0.00 0.00 0.00 0.01 0.01 0.01 0.00 0.00 0.01 0.01 0.00 0.00 0.00 0.00 0.00 0.00 0.00 0.00 0.00 0.00 0.00 0.00 0.00 0.01 0.00 0.01 0.01 0.01 0.01 0.01 0.02 0.01 0.01 0.01 0.01 0.03 0.03 0.04 0.05 0.04 0.04 0.04 0.03 0.02 0.03 0.03 0.03 0.02
0.00 0.00 0.00 0.00 0.01 0.01 0.00 0.00 0.00 0.01 0.01 0.00 0.00 0.00 0.00 0.00 0.00 0.00 0.00 0.00 0.00 0.00 0.00 0.00 0.00 0.01 0.00 0.00 0.00 0.01 0.01 0.01 0.01 0.01 0.01 0.01 0.03 0.03 0.03 0.04 0.04 0.03 0.04 0.04 0.03 0.03 0.02 0.02 0.03
0.00 0.00 0.00 0.00 0.00 0.01 0.00 0.00 0.00 0.01 0.01 0.01 0.00 0.00 0.00 0.00 0.00 0.00 0.00 0.00 0.00 0.00 0.00 0.00 0.00 0.00 0.00 0.00 0.00 0.01 0.01 0.01 0.01 0.02 0.01 0.01 0.01 0.03 0.03 0.04 0.04 0.03 0.03 0.04 0.05 0.03 0.02 0.02 0.02
0.01 0.00 0.00 0.00 0.00 0.00 0.00 0.00 0.00 0.00 0.00 0.00 0.00 0.00 0.00 0.00 0.00 0.00 0.00 0.00 0.00 0.00 0.00 0.00 0.00 0.00 0.00 0.00 0.00 0.00 0.01 0.01 0.01 0.02 0.02 0.02 0.01 0.01 0.02 0.03 0.05 0.04 0.04 0.04 0.05 0.04 0.03 0.02 0.03
0.00 0.00 0.00 0.00 0.00 0.00 0.00 0.00 0.00 0.00 0.00 0.00 0.00 0.00 0.00 0.00 0.00 0.00 0.00 0.00 0.00 0.00 0.00 0.00 0.00 0.00 0.00 0.00 0.01 0.01 0.01 0.01 0.02 0.02 0.02 0.02 0.02 0.01 0.01 0.02 0.05 0.04 0.03 0.03 0.04 0.04 0.04 0.04 0.05
0.00 0.00 0.00 0.00 0.00 0.00 0.00 0.00 0.00 0.00 0.00 0.00 0.00 0.00 0.00 0.00 0.00 0.00 0.00 0.00 0.00 0.00 0.00 0.00 0.00 0.00 0.00 0.00 0.01 0.01 0.01 0.01 0.01 0.01 0.01 0.02 0.02 0.01 0.01 0.02 0.03 0.05 0.03 0.02 0.04 0.04 0.04 0.04 0.07
0.00 0.00 0.00 0.00 0.00 0.00 0.00 0.00 0.00 0.01 0.00 0.00 0.00 0.00 0.00 0.00 0.00 0.00 0.00 0.00 0.00 0.00 0.00 0.00 0.00 0.00 0.00 0.00 0.00 0.00 0.00 0.00 0.00 0.01 0.01 0.01 0.01 0.01 0.01 0.02 0.03 0.04 0.03 0.03 0.05 0.05 0.05 0.06 0.07
0.00 0.00 0.00 0.00 0.00 0.00 0.00 0.00 0.00 0.00 0.00 0.00 0.00 0.00 0.00 0.00 0.00 0.00 0.00 0.00 0.00 0.00 0.00 0.00 0.00 0.00 0.00 0.00 0.00 0.00 0.00 0.00 0.00 0.00 0.00 0.01 0.01 0.01 0.02 0.03 0.03 0.03 0.03 0.04 0.04 0.05 0.05 0.06 0.07
0.00 0.01 0.00 0.00 0.00 0.00 0.00 0.00 0.00 0.00 0.00 0.00 0.00 0.00 0.00 0.00 0.00 0.00 0.00 0.00 0.00 0.00 0.00 0.00 0.00 0.00 0.00 0.00 0.00 0.00 0.00 0.00 0.00 0.00 0.00 0.00 0.01 0.01 0.02 0.03 0.03 0.04 0.03 0.04 0.04 0.04 0.05 0.06 0.06
0.01 0.01 0.00 0.01 0.00 0.00 0.00 0.01 0.01 0.00 0.01 0.00 0.00 0.00 0.00 0.00 0.00 0.00 0.00 0.00 0.00 0.00 0.00 0.00 0.00 0.00 0.00 0.00 0.00 0.00 0.00 0.00 0.00 0.00 0.01 0.01 0.01 0.01 0.01 0.01 0.02 0.03 0.03 0.04 0.04 0.05 0.06 0.05 0.05
0.01 0.01 0.00 0.01 0.01 0.00 0.00 0.00 0.00 0.01 0.01 0.00 0.00 0.00 0.00 0.00 0.00 0.00 0.00 0.00 0.00 0.00 0.00 0.00 0.00 0.00 0.00 0.00 0.00 0.00 0.00 0.00 0.01 0.01 0.01 0.01 0.01 0.01 0.01 0.01 0.01 0.02 0.03 0.03 0.04 0.06 0.04 0.04 0.04
0.01 0.00 0.00 0.00 0.01 0.00 0.00 0.00 0.00 0.00 0.00 0.00 0.00 0.00 0.00 0.00 0.00 0.00 0.00 0.00 0.00 0.00 0.01 0.00 0.00 0.00 0.00 0.01 0.01 0.01 0.00 0.01 0.01 0.01 0.01 0.01 0.01 0.01 0.01 0.00 0.01 0.01 0.01 0.02 0.03 0.05 0.05 0.04 0.04
0.00 0.00 0.00 0.01 0.00 0.00 0.00 0.00 0.00 0.00 0.00 0.00 0.00 0.01 0.00 0.00 0.00 0.00 0.01 0.01 0.00 0.01 0.01 0.01 0.01 0.01 0.00 0.01 0.01 0.01 0.01 0.01 0.01 0.01 0.01 0.01 0.01 0.01 0.01 0.01 0.01 0.01 0.01 0.01 0.03 0.03 0.03 0.03 0.03
0.00 0.00 0.00 0.01 0.01 0.00 0.00 0.00 0.00 0.00 0.00 0.00 0.00 0.01 0.01 0.01 0.01 0.00 0.00 0.00 0.00 0.01 0.02 0.02 0.02 0.02 0.01 0.01 0.01 0.01 0.01 0.01 0.01 0.01 0.00 0.01 0.01 0.01 0.01 0.01 0.01 0.01 0.01 0.02 0.02 0.02 0.02 0.01 0.02
0.00 0.00 0.00 0.01 0.01 0.01 0.00 0.00 0.00 0.00 0.00 0.00 0.00 0.00 0.01 0.01 0.01 0.01 0.00 0.01 0.01 0.02 0.02 0.02 0.01 0.02 0.02 0.02 0.01 0.01 0.01 0.01 0.01 0.01 0.01 0.02 0.01 0.01 0.02 0.02 0.02 0.02 0.02 0.01 0.01 0.01 0.01 0.01 0.02
0.00 0.00 0.01 0.01 0.01 0.01 0.01 0.00 0.00 0.00 0.00 0.00 0.00 0.00 0.00 0.01 0.01 0.01 0.01 0.02 0.01 0.02 0.02 0.02 0.02 0.02 0.02 0.01 0.01 0.01 0.01 0.01 0.02 0.02 0.02 0.02 0.01 0.02 0.02 0.02 0.02 0.02 0.02 0.02 0.02 0.02 0.01 0.02 0.03
0.00 0.01 0.01 0.01 0.01 0.01 0.00 0.00 0.00 0.01 0.01 0.00 0.00 0.00 0.01 0.01 0.01 0.02 0.02 0.03 0.04 0.03 0.03 0.03 0.03 0.04 0.03 0.02 0.02 0.01 0.02 0.02 0.02 0.02 0.02 0.02 0.02 0.02 0.02 0.02 0.02 0.03 0.04 0.05 0.04 0.04 0.03 0.03 0.04
0.00 0.00 0.00 0.01 0.01 0.01 0.00 0.00 0.00 0.01 0.01 0.00 0.00 0.00 0.01 0.01 0.02 0.02 0.02 0.03 0.05 0.06 0.05 0.04 0.04 0.05 0.05 0.04 0.03 0.02 0.03 0.03 0.03 0.04 0.02 0.02 0.02 0.02 0.02 0.02 0.01 0.04 0.06 0.06 0.06 0.06 0.04 0.04 0.04
0.00 0.00 0.01 0.01 0.01 0.01 0.01 0.00 0.00 0.00 0.00 0.00 0.00 0.00 0.01 0.01 0.02 0.02 0.03 0.04 0.06 0.06 0.05 0.06 0.04 0.05 0.06 0.06 0.05 0.05 0.05 0.06 0.06 0.04 0.02 0.02 0.02 0.02 0.02 0.02 0.04 0.05 0.05 0.05 0.06 0.06 0.05 0.05 0.04
0.00 0.01 0.01 0.02 0.02 0.01 0.01 0.01 0.01 0.00 0.00 0.00 0.00 0.01 0.01 0.01 0.01 0.02 0.03 0.04 0.05 0.07 0.06 0.05 0.04 0.05 0.06 0.09 0.12 0.14 0.10 0.08 0.07 0.05 0.04 0.04 0.03 0.02 0.03 0.04 0.04 0.03 0.03 0.03 0.04 0.05 0.05 0.04 0.05
0.00 0.01 0.01 0.02 0.02 0.02 0.01 0.01 0.01 0.01 0.01 0.00 0.00 0.00 0.01 0.01 0.01 0.03 0.04 0.04 0.03 0.05 0.08 0.06 0.04 0.05 0.07 0.10 0.12 0.15 0.13 0.11 0.08 0.06 0.05 0.05 0.04 0.04 0.05 0.04 0.03 0.02 0.03 0.03 0.03 0.04 0.05 0.06 0.06
0.00 0.00 0.01 0.01 0.01 0.01 0.01 0.00 0.01 0.01 0.01 0.01 0.01 0.00 0.01 0.01 0.01 0.02 0.03 0.03 0.02 0.02 0.03 0.03 0.04 0.06 0.09 0.10 0.12 0.11 0.08 0.06 0.05 0.06 0.07 0.07 0.06 0.05 0.05 0.05 0.04 0.04 0.05 0.09 0.08 0.06 0.05 0.06 0.05
0.00 0.00 0.01 0.01 0.01 0.00 0.00 0.00 0.00 0.01 0.01 0.01 0.01 0.01 0.01 0.01 0.01 0.02 0.02 0.03 0.02 0.02 0.02 0.03 0.05 0.06 0.07 0.10 0.10 0.06 0.05 0.04 0.04 0.04 0.06 0.06 0.04 0.04 0.05 0.06 0.05 0.05 0.05 0.06 0.07 0.05 0.04 0.03 0.03
0.00 0.00 0.00 0.00 0.00 0.00 0.00 0.00 0.00 0.01 0.01 0.01 0.01 0.01 0.01 0.01 0.02 0.02 0.02 0.03 0.03 0.03 0.03 0.03 0.03 0.04 0.03 0.03 0.04 0.06 0.05 0.04 0.04 0.04 0.05 0.05 0.04 0.04 0.05 0.05 0.05 0.04 0.03 0.01 0.01 0.02 0.02 0.03 0.03
0.00 0.00 0.00 0.01 0.00 0.00 0.00 0.00 0.00 0.01 0.02 0.02 0.02 0.01 0.01 0.01 0.01 0.01 0.01 0.02 0.02 0.02 0.04 0.05 0.04 0.03 0.02 0.02 0.03 0.04 0.04 0.04 0.04 0.05 0.05 0.05 0.04 0.04 0.04 0.05 0.05 0.04 0.04 0.02 0.02 0.02 0.02 0.02 0.02
0.00 0.00 0.00 0.00 0.00 0.00 0.00 0.00 0.00 0.01 0.01 0.02 0.02 0.02 0.01 0.00 0.01 0.01 0.01 0.01 0.02 0.02 0.03 0.04 0.05 0.04 0.03 0.02 0.03 0.03 0.03 0.03 0.04 0.06 0.06 0.06 0.05 0.05 0.06 0.06 0.05 0.04 0.06 0.07 0.05 0.03 0.02 0.02 0.01
0.00 0.00 0.00 0.00 0.00 0.00 0.00 0.01 0.01 0.02 0.02 0.02 0.02 0.01 0.00 0.00 0.00 0.01 0.01 0.01 0.02 0.03 0.03 0.03 0.02 0.02 0.02 0.02 0.01 0.02 0.02 0.02 0.03 0.05 0.05 0.04 0.05 0.06 0.06 0.06 0.07 0.05 0.04 0.04 0.04 0.03 0.03 0.02 0.01
0.00 0.00 0.00 0.00 0.00 0.00 0.00 0.01 0.02 0.02 0.03 0.02 0.01 0.00 0.00 0.00 0.00 0.01 0.01 0.03 0.05 0.03 0.02 0.02 0.02 0.01 0.01 0.01 0.01 0.02 0.02 0.03 0.04 0.05 0.03 0.03 0.04 0.04 0.04 0.04 0.03 0.03 0.03 0.02 0.02 0.01 0.02 0.02 0.01
0.00 0.00 0.00 0.00 0.00 0.00 0.00 0.01 0.01 0.01 0.01 0.01 0.01 0.00 0.00 0.00 0.00 0.01 0.01 0.04 0.08 0.03 0.01 0.01 0.01 0.01 0.02 0.01 0.01 0.02 0.03 0.03 0.03 0.03 0.03 0.03 0.03 0.03 0.03 0.03 0.03 0.02 0.03 0.02 0.02 0.01 0.02 0.02 0.01
0.00 0.00 0.00 0.00 0.00 0.00 0.00 0.00 0.01 0.01 0.00 0.00 0.00 0.00 0.00 0.00 0.00 0.01 0.01 0.01 0.02 0.02 0.01 0.01 0.01 0.01 0.01 0.01 0.01 0.01 0.02 0.03 0.03 0.03 0.04 0.04 0.04 0.03 0.03 0.03 0.02 0.02 0.02 0.02 0.02 0.02 0.03 0.03 0.02
MSLP
1007.17 1008.13 1009.29 1010.46 1011.47 1012.19 1012.55 1012.56 1012.33 1011.97 1011.65 1011.47 1011.49 1011.70 1012.03 1012.39 1012.67 1012.81 1012.78 1012.62 1012.38 1012.16 1012.02 1012.01 1012.15 1012.38 1012.65 1012.89 1013.05 1013.13 1013.12 1013.06 1013.01 1013.01 1013.09 1013.23 1013.42 1013.61 1013.78 1013.88 1013.92 1013.91 1013.87 1013.82 1013.80 1013.83 1013.89 1013.99 1014.10
1007.38 1008.51 1009.77 1010.96 1011.91 1012.50 1012.68 1012.49 1012.05 1011.51 1011.04 1010.75 1010.70 1010.88 1011.22 1011.61 1011.96 1012.19 1012.26 1012.21 1012.09 1011.98 1011.93 1012.00 1012.19 1012.45 1012.74 1013.00 1013.19 1013.30 1013.34 1013.35 1013.36 1013.41 1013.51 1013.66 1013.83 1013.99 1014.11 1014.17 1014.18 1014.15 1014.11 1014.09 1014.10 1014.15 1014.24 1014.34 1014.43
1007.72 1008.97 1010.26 1011.42 1012.26 1012.69 1012.69 1012.32 1011.72 1011.07 1010.51 1010.17 1010.10 1010.28 1010.63 1011.06 1011.45 1011.73 1011.88 1011.91 1011.88 1011.86 1011.89 1012.03 1012.27 1012.57 1012.88 1013.16 1013.38 1013.53 1013.62 1013.67 1013.73 1013.82 1013.94 1014.09 1014.23 1014.35 1014.42 1014.44 1014.42 1014.38 1014.35 1014.35 1014.40 1014.48 1014.58 1014.67 1014.75
1008.22 1009.51 1010.78 1011.83 1012.52 1012.78 1012.61 1012.11 1011.41 1010.70 1010.13 1009.81 1009.77 1009.98 1010.36 1010.80 1011.21 1011.51 1011.70 1011.78 1011.81 1011.85 1011.96 1012.15 1012.43 1012.75 1013.09 1013.38 1013.62 1013.79 1013.91 1014.00 1014.10 1014.21 1014.35 1014.49 1014.61 1014.69 1014.73 1014.71 1014.67 1014.63 1014.62 1014.65 1014.73 1014.83 1014.94 1015.02 1015.07
1008.84 1010.11 1011.28 1012.18 1012.70 1012.78 1012.46 1011.86 1011.13 1010.44 1009.93 1009.68 1009.71 1009.98 1010.39 1010.84 1011.25 1011.55 1011.74 1011.84 1011.90 1011.99 1012.14 1012.38 1012.68 1013.02 1013.35 1013.65 1013.88 1014.05 1014.18 1014.29 1014.41 1014.54 1014.69 1014.83 1014.94 1015.00 1015.02 1014.99 1014.95 1014.93 1014.94 1015.00 1015.10 1015.21 1015.32 1015.39 1015.40
1009.52 1010.70 1011.72 1012.42 1012.74 1012.65 1012.22 1011.58 1010.87 1010.26 1009.86 1009.73 1009.87 1010.20 1010.65 1011.11 1011.51 1011.79 1011.96 1012.06 1012.14 1012.25 1012.43 1012.69 1013.00 1013.34 1013.65 1013.92 1014.13 1014.28 1014.40 1014.51 1014.64 1014.79 1014.95 1015.10 1015.21 1015.28 1015.30 1015.28 1015.25 1015.24 1015.28 1015.35 1015.47 1015.59 1015.69 1015.73 1015.71
1010.17 1011.21 1012.02 1012.51 1012.62 1012.37 1011.86 1011.21 1010.57 1010.09 1009.84 1009.86 1010.12 1010.54 1011.02 1011.49 1011.86 1012.11 1012.26 1012.35 1012.44 1012.57 1012.77 1013.03 1013.35 1013.66 1013.94 1014.17 1014.33 1014.44 1014.54 1014.64 1014.77 1014.94 1015.12 1015.29 1015.42 1015.51 1015.54 1015.54 1015.53 1015.54 1015.59 1015.68 1015.79 1015.91 1015.99 1016.01 1015.95
1010.70 1011.55 1012.14 1012.39 1012.29 1011.91 1011.34 1010.72 1010.18 1009.85 1009.77 1009.94 1010.32 1010.82 1011.34 1011.81 1012.16 1012.39 1012.52 1012.61 1012.70 1012.85 1013.07 1013.34 1013.65 1013.94 1014.18 1014.35 1014.47 1014.54 1014.61 1014.70 1014.84 1015.01 1015.22 1015.42 1015.58 1015.69 1015.75 1015.76 1015.76 1015.78 1015.83 1015.92 1016.02 1016.13 1016.19 1016.19 1016.11
1011.06 1011.69 1012.03 1012.05 1011.77 1011.27 1010.67 1010.10 1009.67 1009.49 1009.57 1009.89 1010.38 1010.94 1011.49 1011.96 1012.29 1012.51 1012.64 1012.73 1012.85 1013.03 1013.27 1013.56 1013.86 1014.13 1014.34 1014.47 1014.54 1014.58 1014.63 1014.72 1014.86 1015.06 1015.29 1015.51 1015.71 1015.84 1015.91 1015.94 1015.94 1015.95 1015.98 1016.05 1016.14 1016.22 1016.27 1016.26 1016.18
1011.23 1011.63 1011.73 1011.54 1011.10 1010.51 1009.90 1009.39 1009.07 1009.02 1009.23 1009.66 1010.23 1010.84 1011.41 1011.87 1012.20 1012.42 1012.56 1012.69 1012.84 1013.06 1013.34 1013.65 1013.96 1014.22 1014.41 1014.52 1014.57 1014.60 1014.64 1014.73 1014.88 1015.10 1015.36 1015.61 1015.82 1015.97 1016.05 1016.07 1016.06 1016.05 1016.06 1016.10 1016.17 1016.23 1016.26 1016.25 1016.18
1011.24 1011.43 1011.31 1010.93 1010.37 1009.72 1009.12 1008.67 1008.44 1008.50 1008.80 1009.30 1009.92 1010.55 1011.12 1011.57 1011.90 1012.13 1012.30 1012.47 1012.68 1012.94 1013.27 1013.61 1013.94 1014.22 1014.41 1014.52 1014.57 1014.60 1014.65 1014.76 1014.94 1015.18 1015.45 1015.72 1015.94 1016.09 1016.17 1016.18 1016.15 1016.12 1016.10 1016.11 1016.15 1016.19 1016.22 1016.20 1016.14
1011.16 1011.16 1010.87 1010.36 1009.71 1009.03 1008.45 1008.05 1007.89 1008.01 1008.37 1008.90 1009.51 1010.13 1010.68 1011.13 1011.46 1011.71 1011.92 1012.14 1012.40 1012.72 1013.09 1013.48 1013.84 1014.14 1014.35 1014.49 1014.57 1014.62 1014.70 1014.83 1015.03 1015.28 1015.57 1015.84 1016.06 1016.22 1016.29 1016.29 1016.24 1016.19 1016.15 1016.14 1016.15 1016.18 1016.20 1016.18 1016.13
1011.10 1010.95 1010.53 1009.93 1009.24 1008.56 1008.01 1007.65 1007.53 1007.68 1008.03 1008.54 1009.12 1009.70 1010.22 1010.65 1010.98 1011.26 1011.51 1011.77 1012.09 1012.46 1012.86 1013.29 1013.68 1014.01 1014.26 1014.43 1014.55 1014.65 1014.76 1014.92 1015.14 1015.40 1015.68 1015.95 1016.17 1016.32 1016.38 1016.38 1016.34 1016.28 1016.23 1016.21 1016.21 1016.23 1016.24 1016.23 1016.17
1011.15 1010.89 1010.40 1009.76 1009.07 1008.42 1007.90 1007.56 1007.46 1007.58 1007.89 1008.33 1008.84 1009.35 1009.83 1010.23 1010.57 1010.87 1011.15 1011.46 1011.81 1012.20 1012.63 1013.07 1013.49 1013.84 1014.13 1014.35 1014.51 1014.66 1014.81 1015.00 1015.22 1015.48 1015.75 1016.01 1016.22 1016.36 1016.43 1016.44 1016.42 1016.37 1016.34 1016.33 1016.33 1016.35 1016.35 1016.33 1016.26
1011.35 1011.03 1010.52 1009.90 1009.24 1008.63 1008.14 1007.81 1007.67 1007.73 1007.95 1008.29 1008.70 1009.14 1009.55 1009.93 1010.27 1010.59 1010.90 1011.23 1011.60 1012.00 1012.43 1012.86 1013.28 1013.65 1013.96 1014.22 1014.43 1014.62 1014.80 1015.00 1015.23 1015.48 1015.73 1015.96 1016.15 1016.30 1016.39 1016.43 1016.44 1016.44 1016.44 1016.45 1016.47 1016.49 1016.49 1016.45 1016.37
1011.69 1011.37 1010.89 1010.32 1009.72 1009.16 1008.69 1008.34 1008.15 1008.10 1008.20 1008.40 1008.69 1009.03 1009.38 1009.73 1010.08 1010.41 1010.74 1011.09 1011.45 1011.84 1012.24 1012.65 1013.04 1013.41 1013.74 1014.02 1014.27 1014.49 1014.70 1014.90 1015.12 1015.34 1015.56 1015.76 1015.94 1016.09 1016.21 1016.29 1016.36 1016.41 1016.46 1016.52 1016.57 1016.59 1016.59 1016.54 1016.43
1012.14 1011.86 1011.44 1010.96 1010.44 1009.93 1009.47 1009.08 1008.78 1008.60 1008.53 1008.58 1008.73 1008.96 1009.25 1009.58 1009.92 1010.27 1010.62 1010.97 1011.32 1011.68 1012.04 1012.40 1012.76 1013.10 1013.43 1013.73 1014.00 1014.24 1014.46 1014.67 1014.87 1015.06 1015.24 1015.41 1015.58 1015.74 1015.88 1016.01 1016.13 1016.25 1016.36 1016.46 1016.54 1016.58 1016.58 1016.51 1016.39
1012.60 1012.39 1012.09 1011.71 1011.28 1010.82 1010.35 1009.89 1009.47 1009.11 1008.86 1008.72 1008.71 1008.83 1009.05 1009.36 1009.71 1010.09 1010.46 1010.81 1011.15 1011.46 1011.77 1012.08 1012.39 1012.71 1013.03 1013.33 1013.62 1013.88 1014.11 1014.32 1014.49 1014.65 1014.80 1014.94 1015.09 1015.25 1015.42 1015.59 1015.77 1015.94 1016.10 1016.24 1016.35 1016.41 1016.41 1016.35 1016.22
1012.97 1012.88 1012.71 1012.47 1012.14 1011.73 1011.24 1010.68 1010.10 1009.55 1009.08 1008.74 1008.57 1008.56 1008.72 1009.00 1009.37 1009.77 1010.17 1010.53 1010.85 1011.13 1011.39 1011.65 1011.92 1012.21 1012.52 1012.83 1013.14 1013.42 1013.67 1013.87 1014.03 1014.17 1014.29 1014.41 1014.54 1014.70 1014.89 1015.09 1015.30 1015.51 1015.71 1015.88 1016.00 1016.07 1016.08 1016.03 1015.92
1013.18 1013.24 1013.24 1013.15 1012.94 1012.57 1012.05 1011.38 1010.63 1009.86 1009.16 1008.60 1008.24 1008.11 1008.19 1008.45 1008.83 1009.26 1009.69 1010.07 1010.39 1010.66 1010.88 1011.10 1011.34 1011.61 1011.91 1012.24 1012.58 1012.89 1013.16 1013.38 1013.55 1013.67 1013.78 1013.89 1014.01 1014.17 1014.36 1014.58 1014.81 1015.03 1015.24 1015.41 1015.54 1015.62 1015.64 1015.61 1015.52
1013.18 1013.42 1013.62 1013.70 1013.61 1013.29 1012.73 1011.96 1011.02 1010.03 1009.09 1008.30 1007.76 1007.49 1007.49 1007.72 1008.10 1008.56 1009.03 1009.43 1009.77 1010.03 1010.24 1010.43 1010.66 1010.93 1011.25 1011.60 1011.98 1012.33 1012.65 1012.90 1013.09 1013.23 1013.34 1013.45 1013.57 1013.73 1013.92 1014.14 1014.36 1014.59 1014.78 1014.94 1015.06 1015.13 1015.15 1015.14 1015.09
1012.97 1013.42 1013.83 1014.09 1014.13 1013.87 1013.29 1012.41 1011.30 1010.09 1008.91 1007.91 1007.17 1006.76 1006.67 1006.85 1007.23 1007.72 1008.21 1008.65 1009.00 1009.27 1009.49 1009.69 1009.92 1010.20 1010.55 1010.95 1011.37 1011.79 1012.16 1012.47 1012.70 1012.88 1013.02 1013.14 1013.28 1013.44 1013.63 1013.84 1014.05 1014.25 1014.43 1014.56 1014.64 1014.69 1014.71 1014.70 1014.67
1012.59 1013.26 1013.89 1014.35 1014.52 1014.32 1013.72 1012.75 1011.49 1010.08 1008.70 1007.49 1006.57 1006.01 1005.82 1005.95 1006.31 1006.80 1007.32 1007.78 1008.16 1008.46 1008.69 1008.91 1009.16 1009.47 1009.86 1010.31 1010.79 1011.27 1011.71 1012.09 1012.38 1012.61 1012.80 1012.96 1013.12 1013.29 1013.49 1013.70 1013.90 1014.08 1014.22 1014.31 1014.36 1014.37 1014.36 1014.34 1014.31
1012.13 1013.00 1013.83 1014.47 1014.77 1014.64 1014.03 1012.99 1011.61 1010.04 1008.48 1007.09 1006.02 1005.33 1005.04 1005.10 1005.43 1005.91 1006.43 1006.92 1007.33 1007.65 1007.91 1008.15 1008.43 1008.78 1009.22 1009.72 1010.26 1010.80 1011.31 1011.75 1012.11 1012.41 1012.64 1012.85 1013.05 1013.26 1013.47 1013.69 1013.88 1014.05 1014.16 1014.22 1014.23 1014.20 1014.15 1014.09 1014.04
1011.65 1012.70 1013.69 1014.47 1014.87 1014.79 1014.19 1013.11 1011.64 1009.96 1008.27 1006.75 1005.55 1004.75 1004.37 1004.37 1004.66 1005.12 1005.63 1006.13 1006.55 1006.90 1007.19 1007.47 1007.79 1008.17 1008.65 1009.19 1009.78 1010.37 1010.94 1011.43 1011.85 1012.20 1012.50 1012.76 1013.00 1013.25 1013.50 1013.74 1013.96 1014.12 1014.23 1014.27 1014.25 1014.18 1014.07 1013.96 1013.85
1011.23 1012.38 1013.48 1014.34 1014.80 1014.76 1014.16 1013.04 1011.53 1009.79 1008.03 1006.44 1005.16 1004.29 1003.85 1003.79 1004.04 1004.46 1004.97 1005.46 1005.90 1006.26 1006.58 1006.89 1007.24 1007.66 1008.16 1008.74 1009.36 1009.98 1010.57 1011.11 1011.57 1011.96 1012.30 1012.61 1012.91 1013.21 1013.50 1013.79 1014.04 1014.23 1014.35 1014.40 1014.36 1014.26 1014.11 1013.93 1013.74
1010.90 1012.08 1013.20 1014.07 1014.53 1014.48 1013.87 1012.75 1011.23 1009.49 1007.72 1006.12 1004.83 1003.94 1003.46 1003.37 1003.58 1003.98 1004.46 1004.95 1005.39 1005.77 1006.11 1006.45 1006.82 1007.26 1007.78 1008.37 1008.99 1009.62 1010.22 1010.76 1011.23 1011.64 1012.01 1012.36 1012.70 1013.05 1013.41 1013.75 1014.06 1014.30 1014.47 1014.54 1014.52 1014.40 1014.22 1013.98 1013.71
1010.68 1011.80 1012.84 1013.64 1014.04 1013.94 1013.31 1012.19 1010.71 1009.01 1007.30 1005.76 1004.51 1003.65 1003.19 1003.10 1003.29 1003.67 1004.13 1004.61 1005.04 1005.43 1005.79 1006.15 1006.54 1006.99 1007.50 1008.08 1008.68 1009.29 1009.86 1010.38 1010.84 1011.25 1011.63 1012.00 1012.38 1012.78 1013.19 1013.60 1013.98 1014.30 1014.53 1014.66 1014.67 1014.57 1014.38 1014.10 1013.77
1010.56 1011.53 1012.41 1013.05 1013.32 1013.13 1012.47 1011.37 1009.94 1008.35 1006.76 1005.34 1004.21 1003.43 1003.03 1002.97 1003.16 1003.53 1003.98 1004.44 1004.87 1005.26 1005.63 1005.99 1006.38 1006.83 1007.33 1007.88 1008.44 1009.00 1009.53 1010.00 1010.43 1010.81 1011.18 1011.56 1011.96 1012.40 1012.87 1013.35 1013.81 1014.21 1014.52 1014.73 1014.80 1014.75 1014.58 1014.30 1013.94
1010.51 1011.25 1011.91 1012.34 1012.44 1012.14 1011.43 1010.36 1009.03 1007.58 1006.16 1004.92 1003.95 1003.30 1003.00 1002.99 1003.21 1003.58 1004.02 1004.46 1004.87 1005.25 1005.61 1005.97 1006.36 1006.78 1007.25 1007.76 1008.27 1008.77 1009.23 1009.65 1010.03 1010.38 1010.72 1011.10 1011.51 1011.98 1012.50 1013.04 1013.57 1014.06 1014.47 1014.76 1014.92 1014.93 1014.81 1014.56 1014.21
Thickness
5814 5813 5810 5801 5782 5760 5757 5770 5779 5783 5786 5795 5797 5790 5781 5774 5768 5764 5784 5791 5789 5786 5782 5779 5777 5774 5772 5771 5769 5768 5767 5766 5766 5766 5765 5764 5763 5763 5762 5761 5761 5761 5760 5760 5759 5758 5758 5757 5757
5815 5812 5805 5791 5766 5746 5756 5775 5779 5785 5793 5799 5798 5792 5783 5779 5784 5783 5786 5790 5789 5786 5782 5779 5776 5774 5772 5770 5768 5767 5766 5765 5765 5764 5764 5763 5762 5762 5761 5760 5759 5759 5758 5758 5757 5757 5756 5756 5755
5815 5813 5795 5778 5761 5752 5763 5780 5784 5793 5801 5799 5792 5792 5785 5782 5787 5787 5791 5792 5789 5785 5782 5779 5776 5774 5772 5770 5768 5766 5765 5765 5764 5763 5762 5762 5761 5760 5759 5759 5758 5757 5756 5756 5756 5755 5755 5754 5754
5812 5801 5788 5770 5763 5769 5776 5786 5791 5792 5798 5800 5792 5784 5788 5795 5794 5794 5795 5792 5788 5784 5781 5778 5776 5773 5771 5769 5767 5766 5765 5764 5763 5762 5761 5760 5760 5759 5758 5757 5756 5755 5755 5754 5754 5753 5753 5752 5752
5806 5789 5770 5758 5765 5778 5787 5793 5796 5790 5791 5794 5791 5781 5782 5794 5799 5797 5794 5790 5786 5783 5780 5777 5775 5773 5771 5769 5767 5765 5764 5763 5762 5761 5760 5759 5758 5758 5757 5756 5755 5754 5753 5753 5752 5752 5751 5751 5751
5790 5779 5756 5751 5766 5781 5790 5798 5797 5791 5791 5793 5789 5781 5781 5793 5795 5794 5792 5788 5785 5782 5779 5776 5774 5772 5770 5768 5766 5765 5764 5762 5761 5760 5759 5758 5757 5756 5755 5755 5754 5753 5752 5752 5751 5750 5750 5750 5750
5783 5769 5758 5762 5765 5776 5791 5800 5795 5791 5789 5792 5793 5779 5781 5789 5793 5793 5790 5787 5783 5781 5778 5775 5773 5771 5769 5767 5765 5764 5763 5762 5760 5759 5758 5756 5755 5755 5754 5753 5752 5752 5751 5750 5749 5749 5748 5748 5748
5789 5772 5763 5761 5766 5775 5794 5799 5800 5796 5793 5802 5799 5781 5778 5789 5793 5791 5787 5784 5781 5779 5777 5774 5772 5770 5768 5766 5765 5763 5762 5760 5759 5758 5756 5755 5754 5753 5752 5751 5751 5750 5749 5749 5748 5747 5746 5746 5746
5792 5764 5755 5766 5771 5780 5794 5794 5799 5805 5799 5799 5800 5796 5797 5796 5792 5786 5782 5779 5777 5777 5775 5774 5772 5769 5767 5766 5764 5762 5761 5759 5758 5756 5755 5753 5752 5751 5750 5749 5749 5749 5748 5747 5746 5745 5744 5744 5744
5779 5757 5767 5782 5786 5788 5793 5793 5796 5795 5790 5791 5793 5796 5798 5794 5788 5783 5779 5776 5775 5774 5774 5773 5771 5769 5767 5765 5763 5762 5760 5758 5756 5755 5753 5752 5751 5750 5749 5748 5747 5747 5746 5746 5744 5743 5743 5742 5742
5780 5770 5780 5788 5794 5795 5792 5794 5798 5790 5783 5790 5791 5792 5792 5789 5785 5782 5780 5779 5777 5776 5775 5773 5771 5769 5766 5764 5762 5761 5759 5757 5756 5754 5752 5751 5749 5748 5747 5746 5745 5745 5745 5744 5743 5741 5740 5740 5740
5778 5782 5786 5791 5797 5795 5793 5794 5793 5792 5795 5805 5803 5800 5794 5788 5784 5783 5781 5779 5777 5775 5774 5773 5771 5768 5765 5763 5762 5760 5758 5757 5754 5753 5751 5750 5748 5747 5745 5744 5743 5743 5742 5742 5741 5739 5739 5738 5738
5776 5780 5789 5794 5794 5795 5794 5791 5791 5793 5802 5806 5803 5797 5793 5788 5785 5785 5783 5780 5778 5775 5774 5773 5771 5768 5765 5762 5761 5759 5757 5756 5754 5752 5750 5749 5747 5745 5744 5743 5742 5741 5740 5740 5739 5738 5737 5737 5737
5778 5781 5784 5790 5793 5794 5789 5789 5789 5791 5800 5798 5795 5792 5792 5789 5786 5783 5781 5779 5777 5776 5774 5772 5770 5767 5765 5762 5760 5758 5757 5755 5753 5751 5750 5748 5746 5744 5743 5741 5741 5740 5739 5738 5738 5737 5736 5735 5735
5779 5774 5778 5784 5787 5789 5788 5777 5783 5792 5795 5790 5790 5789 5789 5788 5786 5784 5783 5781 5779 5777 5774 5771 5769 5767 5764 5762 5760 5758 5756 5754 5752 5751 5749 5747 5746 5744 5742 5740 5739 5739 5738 5737 5736 5735 5734 5733 5733
5770 5761 5755 5772 5780 5784 5777 5761 5781 5789 5788 5783 5785 5786 5785 5785 5786 5785 5785 5782 5780 5776 5773 5770 5769 5766 5763 5761 5759 5757 5755 5753 5751 5749 5748 5746 5745 5743 5741 5740 5738 5738 5737 5736 5734 5733 5731 5730 5729
5746 5741 5746 5760 5774 5775 5769 5761 5777 5785 5782 5778 5780 5782 5781 5781 5782 5783 5784 5782 5779 5776 5773 5770 5768 5765 5762 5759 5757 5755 5753 5751 5750 5748 5746 5745 5743 5742 5740 5739 5737 5736 5735 5733 5732 5730 5728 5727 5726
5734 5739 5743 5749 5763 5765 5760 5760 5772 5778 5778 5775 5777 5778 5778 5777 5779 5782 5782 5781 5778 5775 5772 5769 5766 5764 5761 5757 5754 5751 5750 5749 5748 5746 5745 5743 5742 5740 5739 5738 5736 5734 5732 5730 5729 5727 5725 5724 5723
5745 5741 5740 5749 5761 5757 5752 5755 5765 5772 5773 5771 5771 5772 5774 5776 5779 5780 5779 5778 5776 5772 5769 5767 5764 5762 5758 5754 5750 5747 5745 5745 5745 5745 5744 5742 5740 5739 5738 5736 5734 5732 5730 5728 5727 5725 5722 5720 5720
5741 5736 5737 5745 5756 5754 5747 5751 5763 5768 5770 5772 5771 5770 5772 5773 5773 5774 5775 5774 5772 5770 5767 5765 5762 5759 5758 5754 5750 5747 5744 5743 5743 5743 5742 5740 5739 5737 5736 5733 5731 5730 5727 5725 5724 5722 5719 5717 5716
5736 5733 5736 5737 5743 5747 5744 5741 5751 5763 5770 5772 5773 5773 5773 5773 5771 5771 5771 5771 5770 5768 5766 5764 5760 5758 5756 5753 5749 5744 5741 5740 5739 5739 5739 5738 5737 5735 5734 5732 5729 5727 5725 5723 5721 5720 5717 5714 5713
5727 5744 5743 5738 5728 5720 5732 5715 5740 5752 5758 5764 5768 5770 5771 5773 5772 5771 5770 5768 5768 5767 5765 5762 5759 5757 5754 5751 5748 5743 5739 5736 5736 5736 5736 5736 5734 5733 5731 5729 5727 5725 5723 5721 5719 5718 5716 5713 5710
5738 5747 5741 5735 5724 5716 5721 5712 5726 5745 5748 5758 5766 5769 5771 5772 5772 5771 5770 5769 5768 5766 5763 5761 5758 5755 5753 5749 5746 5743 5739 5736 5735 5734 5733 5731 5731 5730 5728 5726 5724 5722 5720 5718 5717 5715 5713 5711 5708
5745 5735 5726 5715 5708 5700 5715 5709 5717 5736 5749 5758 5765 5769 5771 5771 5770 5770 5769 5768 5766 5764 5761 5759 5756 5753 5750 5747 5744 5741 5738 5734 5731 5730 5728 5727 5726 5725 5725 5723 5721 5719 5717 5715 5714 5712 5710 5708 5706
5735 5712 5693 5692 5684 5692 5713 5710 5720 5749 5758 5761 5763 5766 5769 5769 5768 5766 5765 5764 5762 5760 5758 5756 5753 5750 5748 5746 5742 5739 5736 5733 5730 5727 5725 5723 5721 5720 5720 5720 5718 5715 5713 5712 5710 5708 5706 5704 5702
5724 5716 5692 5683 5681 5691 5707 5706 5732 5755 5760 5763 5764 5764 5765 5765 5765 5764 5763 5762 5760 5758 5756 5754 5751 5747 5745 5742 5739 5737 5734 5731 5728 5726 5724 5721 5719 5718 5718 5716 5714 5712 5711 5709 5707 5705 5702 5701 5699
5719 5711 5716 5695 5692 5687 5694 5710 5733 5752 5754 5756 5757 5758 5759 5761 5762 5762 5761 5759 5758 5756 5753 5751 5749 5744 5741 5739 5736 5733 5731 5728 5726 5723 5721 5719 5717 5716 5715 5713 5711 5709 5707 5706 5704 5701 5699 5697 5695
5730 5715 5698 5688 5678 5678 5692 5702 5714 5737 5743 5748 5750 5751 5754 5755 5757 5757 5757 5756 5755 5753 5750 5747 5744 5741 5738 5735 5733 5730 5727 5725 5723 5720 5718 5716 5714 5712 5711 5709 5707 5705 5703 5702 5699 5697 5695 5693 5691
5715 5709 5698 5685 5686 5677 5677 5696 5733 5737 5742 5743 5746 5748 5750 5751 5752 5753 5752 5752 5750 5748 5745 5742 5739 5736 5733 5731 5728 5726 5723 5720 5718 5716 5714 5712 5710 5709 5707 5706 5703 5701 5699 5697 5695 5693 5691 5689 5687
5724 5713 5699 5690 5684 5680 5679 5697 5740 5740 5742 5743 5744 5746 5747 5747 5748 5748 5747 5746 5744 5742 5740 5737 5734 5732 5729 5726 5723 5720 5718 5715 5713 5711 5710 5708 5707 5705 5704 5702 5699 5697 5695 5693 5691 5689 5687 5685 5682